DMSP 5D-2 F13 DEB, 42258

Orbit data source: Space-Track

DMSP 5D-2 F13 DEB, 42258 is space debris in SSO originally from a launch on Fri, 24 Mar 1995 UTC launched from the Air Force Western Test Range (AFWTR). Debris objects in space refer to the collection of defunct objects orbiting the Earth. Examples of debris include non-operational satellites, rocket bodies, and fragments generated from explosions, collisions, or faulty payload assembly.

Loading next visibility...
Identifier
42258, 1995-015FY
Orbit
SSO
Country
Flag of USUS
Related business
Manufacturer
Unknown
Mission
Spacecraft
Bus & Motor
Unknown
Mass
Unknown
Launch date (UTC)
1995-03-24 (31 years ago)
Launch vehicle
Unknown
Launch site
Air Force Western Test Range (AFWTR)
Object type
Payload
Rocket body
Debris
Shape & HBR
Unknown shape, 0.1 m
Radar Cross Section
Small (<0.1 m²)

Expand to show TLE details & history
Last TLE update: 1 week ago

TLE from 1 week ago
0 DMSP 5D-2 F13 DEB
1 42258U 95015FY  25297.44072597  .00004842  00000-0  29507-2 0  9997
2 42258  98.7166 109.4025 0129237 356.6173   3.4108 14.02448696514411
Epoch: 2025-10-24T10:34Z
TLE epoch observation values (Epoch: 2025-10-24T10:34:38.723Z)
Latitude
0.00003°
Longitude
-82.34444°
Altitude
794.5 km
Speed
7.504 km/s
True Right ascension
07h 17m 36s
True Declination
0° 00' 00"
Sunlit
Object was in daylight at epoch
Visualization orbit readout
Latitude
Unknown
Longitude
Unknown
Altitude
Unknown
Speed
Unknown
Apparent Right ascension
Unknown
Apparent Declination
Unknown
Sunlit
N/A
Visualization observer readout
Local Sidereal Time
21:56:10
Azimuth
Unknown
Elevation
Unknown
Doppler factor
Unknown
Orbital elements
Apogee altitude
976.344 km
Perigee altitude
788.675 km
Semi-major axis
7,260.647 km
Eccentricity
0.01292
Inclination
98.7166°
RAAN
109.4025°
Arg. of periapsis
356.6173°
True anomaly
3.50035°
Mean anomaly
3.4108°
Eccentric anomaly
3.45543°
Mean motion
3.50817 °/min
Orbital period
102.62 mins
BSTAR
0.0029507
Loading maneuver chart data...
Computing Atmospheric mass density...

Documentation

Showing up to 5 results
|